sat.trackr.live / text

‹ back to catalog

STARLINK-6192

NORAD 56903 · 2023-083AD

PAYLOAD ACTIVE UNKNOWN

§ Identity

Operator
Country
US
Launch date
2023-06-12
Launch site
AFETR
Launch vehicle
Mass (kg)
RCS (m²)

Purposes: comms

External: N2YO · Heavens-Above · Gunter

§ Orbital elements

Epoch: 2026-05-25T00:02:13.509600Z

Period
94.27 min
Inclination
43.0058°
Eccentricity
0.0001187
Mean motion
15.27572421 rev/d
Perigee alt
482.3 km
Apogee alt
483.9 km
Semi-major
6,861.2 km
B*
-9.1988e-6
RAAN
10.6076°
Arg perigee
263.7863°
Mean anomaly
96.2853°
Rev number
16,345

§ Raw data

STARLINK-61921 56903U 23083AD  26145.00154525 -.00000515  00000+0 -91988-5 0  99912 56903  43.0058  10.6076 0001187 263.7863  96.2853 15.27572421163455

JSON: /api/v1/satellites/56903 · /tle

For live sub-satellite position, see the globe view (requires WebGL).

§ Visibility from observer

Set your observer location to see the next 7 days of passes ≥ 10°. The values pass through the URL so the page stays shareable.

No JS? Fill the form by hand. The geolocation button needs JavaScript.